Location: Squirrel Cove
(50.1074°N, 124.9139°W)
Time: 13:42:11
(UTC-07:00)

PCSat - Pass Details

Date: 27 May 2022
Orbit: 784 x 795 km, 67.1° (Epoch: 26 June)

Event Time Altitude Azimuth Distance (km) Brightness Sun altitude
Rises 23:20:15 0° 318° (NW) 3,305 14.4 -13.9°
Reaches altitude 10° 23:23:42 10° 340° (NNW) 2,374 13.5 -14.2°
Maximum altitude 23:26:58 16° 17° (NNE) 1,995 12.3 -14.4°
Drops below altitude 10° 23:30:13 10° 54° (NE) 2,372 12.2 -14.6°
Sets 23:33:39 0° 76° (ENE) 3,299 12.7 -14.9°
